GOES 2 AKM, 20799

Orbit data source: Space-Track

GOES 2 AKM, 20799 is space debris in GEO originally from a launch on Thu, 16 Jun 1977 UTC launched from the Air Force Eastern Test Range (AFETR). Debris objects in space refer to the collection of defunct objects orbiting the Earth. Examples of debris include non-operational satellites, rocket bodies, and fragments generated from explosions, collisions, or faulty payload assembly.

Not visible in the next 10 days
GOES 2 AKM details
Identifier
20799, 1977-048G
Orbit
GEO
Last TLE update7 hours ago
Origin
Flag of USGSFC (US)
ManufacturerAerojet
MissionSpacecraft
Bus & MotorSVM, SVM-5
MassWet unknown, 31 kg dry
Launch date (UTC)
1977-06-16 (48 years ago)
Launch vehicleUnknown
Launch site
Air Force Eastern Test Range (AFETR)
Object type
Payload
Rocket body
Debris
Shape & HBRUnknown
Radar Cross SectionMedium (>0.1 m² and <1 m²)

Expand to show TLE details & history

TLE from 7 hours ago
0 GOES 2 AKM
1 20799U 77048G   24361.70017535 -.00000259  00000-0  00000+0 0  9993
2 20799   5.4717 282.3509 0206025  90.5017 112.9624  1.00563034112550
Epoch: 2024-12-26T16:48Z
Definitive object data (Epoch: 2024-12-26T16:48:15.15Z)
Latitude-2.35001°
Longitude140.10173°
Altitude36,054.463 km
Speed3.052 km/s
True Right ascension08h 31m 21s
True Declination-2° 20' 52"
Sunlit
Object was in daylight at TLE epoch
Visualization TLE readout
Latitude-4.51133°
Longitude-120.40021°
Altitude36,413.679 km
Speed3.026 km/s
Apparent Right ascension14h 47m 18s
Apparent Declination-9° 20' 58"
Sunlit
Object is in daylight
Visualization observer readout
Local Sidereal Time23:00:20
Azimuth285.098° WNW
Elevation-31.282°
Doppler factor1
Orbital elements
Apogee altitude36,573.246 km
Perigee altitude34,839.161 km
Semi-major axis42,084.34 km
Eccentricity0.0206025
Inclination5.4717°
RAAN282.3509°
Arg. of periapsis90.5017°
True anomaly115.11406°
Mean anomaly112.9624°
Eccentric anomaly114.04044°
Mean motion0.2514 °/min
BSTARUnknown
Orbital period1431.99 mins
Loading historical data...
20799 neighbors
Authenticating...
Loading maneuver chart data...
Loading historical data...
Loading historical data...
Loading historical data...
Loading historical data...
Loading historical data...
Loading historical data...
Loading historical data...

GOES 2 AKM Visibility forecast

Observer location: undefined°, undefined

GOES 2 AKM is not visible in the next 10 days
Span
Click to sort rows by Start time (UTC) header in descending order
Start Az.
Max El. time (UTC)
Max El. Az.
Max El.
End time (UTC)
End Az.
|